NORTHEAST SUFFOLK  -  Special Weather Statement Special Weather Statement        NORTHERN NASSAU  -  Special Weather Statement Special Weather Statement        NORTHWEST SUFFOLK  -  Special Weather Statement Special Weather Statement        SOUTHEAST SUFFOLK  -  Special Weather Statement Special Weather Statement        SOUTHERN NASSAU  -  Special Weather Statement Special Weather Statement        SOUTHWEST SUFFOLK  -  Special Weather Statement Special Weather Statement      

Active alerts

Northern Nassau
  Details for Northern Nassau Special Weather Statement
Southern Nassau
  Details for Southern Nassau Special Weather Statement
Northwest Suffolk
  Details for Northwest Suffolk Special Weather Statement
Southwest Suffolk
  Details for Southwest Suffolk Special Weather Statement
Northeast Suffolk
  Details for Northeast Suffolk Special Weather Statement
Southeast Suffolk
  Details for Southeast Suffolk Special Weather Statement


WXM80 ListenWXM80 Stop

You find our weather info also at:

UK Metoffice

WeatherCloud

Weather Underground

Northeastern Weather Network

AWEKAS

Citizen Weather Observer Program (CWOP)

HAMweather, WeatherForYou, PWS Weather


Weather Underground History page Text

Daily Summary for March 17, 2017 Units:  English    Metric   Both
« Previous Day
Next Day »
Daily Weekly Monthly Yearly Custom
  High: Low: Average:
Temperature: 45.6 °F 30.7 °F 37.3 °F
Dew Point: 23.0 °F 17.3 °F 20.5 °F
Humidity: 67 % 34 % 52 %
Wind Speed: 10.0 mph 0.0 mph 4.4 mph
Wind Gust: 18.4 mph - -
Wind:- - West
Pressure: 30.23 in 30.08 in -
Precipitation: 0.00 in    
Historical Graphs
 
 
Tabular Data for March 17, 2017
Time Temperature Dew Point Pressure Wind Wind Speed Wind Gust Humidity Rainfall Rate (Hourly)
00:07 32.7 °F 17.9 °F 30.08 in North 2.9 mph 6.9 mph 54 % 0.00 in
00:13 32.6 °F 17.3 °F 30.08 in NW 5.7 mph 10.4 mph 53 % 0.00 in
00:18 32.6 °F 17.3 °F 30.08 in WNW 5.0 mph 10.0 mph 53 % 0.00 in
00:23 32.6 °F 17.8 °F 30.08 in WNW 5.0 mph 9.0 mph 54 % 0.00 in
00:28 32.5 °F 17.7 °F 30.08 in WNW 6.0 mph 9.0 mph 54 % 0.00 in
00:33 32.5 °F 17.7 °F 30.08 in WNW 6.0 mph 10.0 mph 54 % 0.00 in
00:38 32.6 °F 17.8 °F 30.08 in NW 2.9 mph 10.4 mph 54 % 0.00 in
00:43 32.5 °F 17.7 °F 30.08 in WNW 6.0 mph 9.0 mph 54 % 0.00 in
00:48 32.5 °F 18.1 °F 30.08 in North 3.2 mph 6.0 mph 55 % 0.00 in
00:53 32.4 °F 18.0 °F 30.08 in WNW 6.0 mph 13.0 mph 55 % 0.00 in
00:58 32.4 °F 18.0 °F 30.08 in West 2.3 mph 5.0 mph 55 % 0.00 in
01:03 32.3 °F 17.9 °F 30.08 in NW 4.5 mph 11.5 mph 55 % 0.00 in
01:08 32.3 °F 17.9 °F 30.09 in NW 2.8 mph 5.8 mph 55 % 0.00 in
01:13 32.3 °F 18.3 °F 30.09 in WSW 2.5 mph 3.5 mph 56 % 0.00 in
01:18 32.2 °F 18.2 °F 30.09 in WNW 2.9 mph 6.9 mph 56 % 0.00 in
01:23 32.2 °F 18.7 °F 30.10 in WSW 2.1 mph 6.0 mph 57 % 0.00 in
01:28 32.2 °F 18.7 °F 30.10 in WSW 5.3 mph 8.1 mph 57 % 0.00 in
01:33 32.3 °F 18.8 °F 30.10 in WNW 5.0 mph 8.1 mph 57 % 0.00 in
01:38 32.2 °F 19.1 °F 30.09 in WNW 4.6 mph 8.1 mph 58 % 0.00 in
01:43 32.2 °F 18.7 °F 30.10 in WSW 3.4 mph 5.8 mph 57 % 0.00 in
01:48 32.2 °F 19.1 °F 30.10 in WNW 1.8 mph 8.1 mph 58 % 0.00 in
01:53 32.2 °F 19.5 °F 30.10 in WSW 4.3 mph 9.2 mph 59 % 0.00 in
01:58 32.2 °F 19.5 °F 30.10 in West 4.7 mph 6.9 mph 59 % 0.00 in
02:04 32.1 °F 19.4 °F 30.10 in WNW 2.4 mph 6.9 mph 59 % 0.00 in
02:08 32.1 °F 19.4 °F 30.10 in WNW 3.9 mph 8.1 mph 59 % 0.00 in
02:14 32.1 °F 19.4 °F 30.11 in WSW 1.8 mph 14.0 mph 59 % 0.00 in
02:19 32.2 °F 19.5 °F 30.10 in WSW 6.3 mph 7.0 mph 59 % 0.00 in
02:24 32.2 °F 19.9 °F 30.10 in West 3.0 mph 8.1 mph 60 % 0.00 in
02:29 32.2 °F 20.2 °F 30.10 in NW 4.6 mph 13.8 mph 61 % 0.00 in
02:34 32.1 °F 20.2 °F 30.11 in West 4.3 mph 11.5 mph 61 % 0.00 in
02:39 32.1 °F 20.2 °F 30.10 in NW 6.8 mph 12.7 mph 61 % 0.00 in
02:44 32.1 °F 20.2 °F 30.11 in West 1.1 mph 6.9 mph 61 % 0.00 in
02:49 32.1 °F 20.2 °F 30.11 in WSW 2.3 mph 9.2 mph 61 % 0.00 in
02:54 32.1 °F 20.2 °F 30.10 in WSW 3.8 mph 8.1 mph 61 % 0.00 in
02:59 32.1 °F 20.2 °F 30.10 in West 5.1 mph 13.8 mph 61 % 0.00 in
03:04 32.1 °F 20.2 °F 30.11 in West 4.0 mph 8.1 mph 61 % 0.00 in
03:09 32.1 °F 20.2 °F 30.11 in NW 6.1 mph 9.0 mph 61 % 0.00 in
03:14 32.1 °F 19.8 °F 30.10 in WNW 3.0 mph 9.2 mph 60 % 0.00 in
03:19 32.1 °F 20.2 °F 30.11 in WNW 6.7 mph 10.4 mph 61 % 0.00 in
03:24 32.0 °F 20.1 °F 30.11 in SW 4.0 mph 8.0 mph 61 % 0.00 in
03:29 32.0 °F 20.1 °F 30.11 in NW 3.4 mph 8.1 mph 61 % 0.00 in
03:34 32.0 °F 19.7 °F 30.11 in WNW 4.5 mph 6.0 mph 60 % 0.00 in
03:39 32.0 °F 19.7 °F 30.11 in West 7.9 mph 15.0 mph 60 % 0.00 in
03:45 32.0 °F 20.1 °F 30.11 in West 7.3 mph 12.7 mph 61 % 0.00 in
03:50 32.0 °F 20.1 °F 30.11 in WNW 4.3 mph 12.7 mph 61 % 0.00 in
03:55 32.0 °F 20.4 °F 30.11 in West 5.4 mph 11.0 mph 62 % 0.00 in
04:00 32.0 °F 20.4 °F 30.11 in SW 2.7 mph 12.7 mph 62 % 0.00 in
04:05 31.9 °F 20.7 °F 30.11 in SW 7.0 mph 11.5 mph 63 % 0.00 in
04:10 31.9 °F 20.7 °F 30.12 in SW 5.6 mph 13.0 mph 63 % 0.00 in
04:15 31.9 °F 20.7 °F 30.12 in WSW 5.4 mph 12.0 mph 63 % 0.00 in
04:20 31.9 °F 20.7 °F 30.12 in West 3.3 mph 8.1 mph 63 % 0.00 in
04:25 31.9 °F 20.7 °F 30.12 in West 3.4 mph 8.1 mph 63 % 0.00 in
04:26 31.8 °F 21.0 °F 30.12 in West 4.3 mph 6.9 mph 64 % 0.00 in
04:31 31.8 °F 21.0 °F 30.13 in SSW 4.5 mph 7.0 mph 64 % 0.00 in
04:36 31.7 °F 21.3 °F 30.13 in West 6.8 mph 8.1 mph 65 % 0.00 in
04:42 31.7 °F 20.9 °F 30.13 in WSW 7.3 mph 11.5 mph 64 % 0.00 in
04:47 31.7 °F 21.3 °F 30.13 in WSW 4.6 mph 11.0 mph 65 % 0.00 in
04:52 31.7 °F 20.9 °F 30.14 in SW 5.2 mph 10.4 mph 64 % 0.00 in
04:57 31.6 °F 21.2 °F 30.14 in SW 7.5 mph 10.4 mph 65 % 0.00 in
05:02 31.6 °F 21.2 °F 30.14 in NW 8.6 mph 13.0 mph 65 % 0.00 in
05:07 31.6 °F 20.8 °F 30.14 in WSW 5.2 mph 9.2 mph 64 % 0.00 in
05:12 31.6 °F 20.8 °F 30.14 in WSW 2.7 mph 5.8 mph 64 % 0.00 in
05:17 31.5 °F 21.1 °F 30.15 in West 5.8 mph 11.5 mph 65 % 0.00 in
05:22 31.4 °F 21.0 °F 30.15 in SW 3.3 mph 6.9 mph 65 % 0.00 in
05:27 31.4 °F 21.0 °F 30.15 in WSW 3.4 mph 6.0 mph 65 % 0.00 in
05:32 31.4 °F 21.0 °F 30.15 in NW 5.5 mph 10.4 mph 65 % 0.00 in
05:38 31.3 °F 20.9 °F 30.15 in West 5.3 mph 8.1 mph 65 % 0.00 in
05:43 31.3 °F 20.9 °F 30.15 in West 5.2 mph 11.5 mph 65 % 0.00 in
05:48 31.3 °F 20.9 °F 30.15 in WSW 3.0 mph 12.0 mph 65 % 0.00 in
05:53 31.2 °F 21.2 °F 30.15 in West 7.0 mph 12.0 mph 66 % 0.00 in
05:58 31.2 °F 21.2 °F 30.15 in West 5.4 mph 9.2 mph 66 % 0.00 in
06:03 31.2 °F 21.5 °F 30.16 in West 6.0 mph 12.0 mph 67 % 0.00 in
06:08 31.1 °F 21.1 °F 30.16 in West 5.0 mph 8.0 mph 66 % 0.00 in
06:13 31.1 °F 21.4 °F 30.16 in West 3.0 mph 12.0 mph 67 % 0.00 in
06:18 31.1 °F 21.1 °F 30.16 in WNW 5.0 mph 12.0 mph 66 % 0.00 in
06:23 31.0 °F 21.0 °F 30.16 in West 7.0 mph 13.0 mph 66 % 0.00 in
06:28 31.0 °F 21.0 °F 30.16 in WNW 5.0 mph 11.0 mph 66 % 0.00 in
06:33 31.0 °F 21.0 °F 30.17 in West 5.0 mph 12.0 mph 66 % 0.00 in
06:38 30.9 °F 20.9 °F 30.17 in WSW 8.6 mph 9.2 mph 66 % 0.00 in
06:43 30.9 °F 20.9 °F 30.17 in West 5.0 mph 9.0 mph 66 % 0.00 in
06:48 30.9 °F 21.2 °F 30.17 in WSW 6.7 mph 9.2 mph 67 % 0.00 in
06:53 30.8 °F 21.1 °F 30.17 in West 5.0 mph 14.0 mph 67 % 0.00 in
06:58 30.8 °F 20.8 °F 30.17 in WSW 5.2 mph 12.0 mph 66 % 0.00 in
07:03 30.8 °F 20.8 °F 30.18 in West 4.1 mph 8.1 mph 66 % 0.00 in
07:04 30.8 °F 20.8 °F 30.18 in WNW 5.2 mph 8.1 mph 66 % 0.00 in
07:09 30.8 °F 20.8 °F 30.18 in WSW 3.5 mph 6.9 mph 66 % 0.00 in
07:14 30.7 °F 20.7 °F 30.18 in WNW 3.9 mph 8.1 mph 66 % 0.00 in
07:19 30.7 °F 20.7 °F 30.18 in WNW 4.3 mph 10.4 mph 66 % 0.00 in
07:24 30.8 °F 20.8 °F 30.18 in WNW 8.7 mph 12.0 mph 66 % 0.00 in
07:29 30.9 °F 20.9 °F 30.18 in WSW 4.2 mph 8.1 mph 66 % 0.00 in
07:34 31.0 °F 21.0 °F 30.18 in WNW 4.3 mph 11.5 mph 66 % 0.00 in
07:39 31.1 °F 20.7 °F 30.19 in West 3.9 mph 6.9 mph 65 % 0.00 in
07:44 31.3 °F 20.9 °F 30.19 in WNW 7.5 mph 11.5 mph 65 % 0.00 in
07:49 31.5 °F 21.1 °F 30.20 in NW 7.3 mph 11.0 mph 65 % 0.00 in
07:50 31.5 °F 21.1 °F 30.20 in WSW 7.4 mph 12.0 mph 65 % 0.00 in
07:55 31.7 °F 21.3 °F 30.20 in WSW 5.7 mph 8.1 mph 65 % 0.00 in
08:00 31.9 °F 21.1 °F 30.20 in WSW 5.4 mph 8.1 mph 64 % 0.00 in
08:05 32.0 °F 21.2 °F 30.19 in WSW 7.4 mph 11.5 mph 64 % 0.00 in
08:10 32.2 °F 21.4 °F 30.20 in WSW 6.1 mph 11.5 mph 64 % 0.00 in
08:15 32.5 °F 21.3 °F 30.20 in West 3.2 mph 12.7 mph 63 % 0.00 in
08:20 32.8 °F 21.6 °F 30.20 in SW 4.0 mph 5.8 mph 63 % 0.00 in
08:25 33.0 °F 21.4 °F 30.20 in West 8.4 mph 13.8 mph 62 % 0.00 in
08:30 33.3 °F 21.7 °F 30.21 in West 5.0 mph 9.2 mph 62 % 0.00 in
08:35 33.4 °F 21.8 °F 30.21 in West 7.5 mph 12.7 mph 62 % 0.00 in
08:40 33.7 °F 22.1 °F 30.22 in WNW 7.3 mph 9.0 mph 62 % 0.00 in
08:45 33.9 °F 21.9 °F 30.22 in WSW 7.3 mph 10.4 mph 61 % 0.00 in
08:50 34.1 °F 21.7 °F 30.22 in WNW 5.7 mph 10.4 mph 60 % 0.00 in
08:56 34.2 °F 21.4 °F 30.22 in West 8.4 mph 9.2 mph 59 % 0.00 in
09:01 34.3 °F 21.8 °F 30.22 in WSW 7.2 mph 11.5 mph 60 % 0.00 in
09:06 34.3 °F 21.4 °F 30.22 in WSW 7.1 mph 12.7 mph 59 % 0.00 in
09:11 34.3 °F 21.8 °F 30.22 in WSW 6.4 mph 8.1 mph 60 % 0.00 in
09:16 34.5 °F 22.0 °F 30.22 in WSW 4.5 mph 9.2 mph 60 % 0.00 in
09:21 34.7 °F 22.2 °F 30.22 in West 4.8 mph 16.1 mph 60 % 0.00 in
09:26 34.8 °F 22.7 °F 30.22 in West 4.7 mph 8.0 mph 61 % 0.00 in
09:31 35.0 °F 22.5 °F 30.22 in WSW 5.0 mph 10.4 mph 60 % 0.00 in
09:36 35.1 °F 22.2 °F 30.22 in SW 7.9 mph 16.0 mph 59 % 0.00 in
09:41 35.3 °F 22.4 °F 30.23 in SW 9.3 mph 16.0 mph 59 % 0.00 in
09:46 35.5 °F 23.0 °F 30.22 in West 6.8 mph 10.0 mph 60 % 0.00 in
09:51 35.7 °F 21.9 °F 30.23 in SW 8.5 mph 13.8 mph 57 % 0.00 in
09:56 35.7 °F 21.9 °F 30.23 in West 9.5 mph 13.8 mph 57 % 0.00 in
10:01 35.7 °F 22.4 °F 30.23 in West 4.7 mph 9.0 mph 58 % 0.00 in
10:06 36.0 °F 22.6 °F 30.22 in NNW 6.9 mph 11.5 mph 58 % 0.00 in
10:11 36.0 °F 22.2 °F 30.23 in West 6.5 mph 12.0 mph 57 % 0.00 in
10:17 36.1 °F 22.3 °F 30.23 in WNW 4.8 mph 11.5 mph 57 % 0.00 in
10:22 36.2 °F 21.6 °F 30.22 in WSW 5.6 mph 11.5 mph 55 % 0.00 in
10:27 36.5 °F 22.3 °F 30.22 in SW 7.1 mph 11.5 mph 56 % 0.00 in
10:32 36.9 °F 22.2 °F 30.22 in WNW 6.8 mph 11.5 mph 55 % 0.00 in
10:37 37.3 °F 22.6 °F 30.22 in WNW 7.2 mph 13.8 mph 55 % 0.00 in
10:42 37.5 °F 22.3 °F 30.22 in West 7.6 mph 13.8 mph 54 % 0.00 in
10:47 37.6 °F 22.4 °F 30.22 in WSW 7.1 mph 13.8 mph 54 % 0.00 in
10:52 37.7 °F 22.1 °F 30.22 in WSW 4.8 mph 11.5 mph 53 % 0.00 in
10:58 37.7 °F 22.5 °F 30.21 in WNW 5.2 mph 11.5 mph 54 % 0.00 in
11:03 37.8 °F 22.2 °F 30.21 in WSW 7.2 mph 18.4 mph 53 % 0.00 in
11:08 38.0 °F 22.4 °F 30.21 in West 6.0 mph 13.0 mph 53 % 0.00 in
11:13 38.3 °F 22.7 °F 30.21 in West 8.0 mph 12.0 mph 53 % 0.00 in
11:18 38.7 °F 22.6 °F 30.21 in West 8.0 mph 15.0 mph 52 % 0.00 in
11:23 39.1 °F 22.9 °F 30.21 in West 9.0 mph 15.0 mph 52 % 0.00 in
11:28 39.5 °F 22.8 °F 30.21 in West 5.0 mph 17.0 mph 51 % 0.00 in
11:33 40.0 °F 22.8 °F 30.21 in WNW 8.0 mph 17.0 mph 50 % 0.00 in
11:38 40.2 °F 22.5 °F 30.21 in WNW 3.0 mph 14.0 mph 49 % 0.00 in
11:43 40.6 °F 21.9 °F 30.20 in West 7.0 mph 18.0 mph 47 % 0.00 in
11:48 40.5 °F 22.3 °F 30.20 in West 8.9 mph 13.0 mph 48 % 0.00 in
11:53 40.6 °F 21.9 °F 30.20 in SW 10.0 mph 12.7 mph 47 % 0.00 in
11:58 41.0 °F 22.3 °F 30.20 in West 5.6 mph 10.4 mph 47 % 0.00 in
12:03 41.1 °F 21.9 °F 30.20 in WNW 7.2 mph 13.8 mph 46 % 0.00 in
12:08 41.3 °F 22.1 °F 30.20 in WNW 9.0 mph 13.8 mph 46 % 0.00 in
12:13 41.5 °F 21.7 °F 30.20 in WNW 5.6 mph 12.7 mph 45 % 0.00 in
12:18 41.7 °F 21.4 °F 30.20 in West 5.4 mph 11.5 mph 44 % 0.00 in
12:23 42.0 °F 22.2 °F 30.20 in NW 5.3 mph 11.5 mph 45 % 0.00 in
12:28 42.1 °F 21.7 °F 30.20 in WSW 8.5 mph 13.8 mph 44 % 0.00 in
12:33 42.2 °F 21.8 °F 30.20 in WNW 4.4 mph 6.9 mph 44 % 0.00 in
12:38 42.3 °F 21.9 °F 30.20 in WNW 4.3 mph 9.2 mph 44 % 0.00 in
12:43 42.5 °F 21.5 °F 30.19 in West 2.0 mph 6.9 mph 43 % 0.00 in
12:48 42.7 °F 22.8 °F 30.19 in WNW 5.6 mph 8.1 mph 45 % 0.00 in
12:53 42.7 °F 21.2 °F 30.19 in NW 9.5 mph 12.7 mph 42 % 0.00 in
12:58 42.5 °F 21.5 °F 30.19 in West 4.8 mph 7.0 mph 43 % 0.00 in
13:03 42.6 °F 21.1 °F 30.18 in NE 6.5 mph 11.5 mph 42 % 0.00 in
13:08 42.8 °F 22.4 °F 30.18 in WNW 3.6 mph 6.9 mph 44 % 0.00 in
13:13 43.1 °F 21.0 °F 30.18 in WNW 6.6 mph 10.4 mph 41 % 0.00 in
13:18 43.2 °F 21.1 °F 30.18 in NW 8.0 mph 15.0 mph 41 % 0.00 in
13:23 43.1 °F 21.0 °F 30.18 in West 5.0 mph 8.1 mph 41 % 0.00 in
13:28 43.3 °F 21.7 °F 30.18 in WSW 6.7 mph 6.7 mph 42 % 0.00 in
13:33 43.3 °F 21.1 °F 30.18 in WSW 4.9 mph 10.4 mph 41 % 0.00 in
13:39 43.3 °F 21.1 °F 30.18 in WNW 9.7 mph 11.5 mph 41 % 0.00 in
13:44 43.1 °F 20.4 °F 30.18 in West 6.3 mph 10.4 mph 40 % 0.00 in
13:49 43.3 °F 21.7 °F 30.18 in WNW 2.8 mph 11.5 mph 42 % 0.00 in
13:54 43.7 °F 22.6 °F 30.17 in NW 2.9 mph 7.0 mph 43 % 0.00 in
13:59 44.0 °F 20.6 °F 30.17 in West 7.9 mph 15.0 mph 39 % 0.00 in
14:04 43.9 °F 21.1 °F 30.17 in WNW 2.9 mph 9.2 mph 40 % 0.00 in
14:09 44.1 °F 21.3 °F 30.17 in NW 6.4 mph 11.5 mph 40 % 0.00 in
14:14 44.2 °F 20.8 °F 30.16 in WSW 4.5 mph 9.2 mph 39 % 0.00 in
14:19 44.3 °F 21.5 °F 30.16 in WNW 5.4 mph 8.1 mph 40 % 0.00 in
14:24 44.5 °F 20.4 °F 30.16 in West 4.1 mph 11.5 mph 38 % 0.00 in
14:29 44.6 °F 20.5 °F 30.16 in WNW 6.8 mph 13.0 mph 38 % 0.00 in
14:34 44.6 °F 21.1 °F 30.16 in WNW 5.7 mph 11.5 mph 39 % 0.00 in
14:39 44.8 °F 21.9 °F 30.15 in WNW 2.7 mph 6.0 mph 40 % 0.00 in
14:44 45.1 °F 21.0 °F 30.15 in WNW 5.3 mph 9.0 mph 38 % 0.00 in
14:49 45.0 °F 20.3 °F 30.15 in WSW 7.8 mph 11.5 mph 37 % 0.00 in
14:54 45.0 °F 20.9 °F 30.14 in WNW 5.9 mph 12.0 mph 38 % 0.00 in
14:59 45.0 °F 19.6 °F 30.15 in WNW 7.7 mph 15.0 mph 36 % 0.00 in
15:04 45.0 °F 20.3 °F 30.14 in WNW 7.6 mph 10.4 mph 37 % 0.00 in
15:09 45.1 °F 19.7 °F 30.14 in NW 7.7 mph 9.2 mph 36 % 0.00 in
15:14 45.2 °F 19.8 °F 30.14 in West 4.2 mph 8.1 mph 36 % 0.00 in
15:19 45.3 °F 19.9 °F 30.13 in WNW 5.1 mph 9.2 mph 36 % 0.00 in
15:25 45.4 °F 20.0 °F 30.13 in SW 5.2 mph 11.5 mph 36 % 0.00 in
15:30 45.5 °F 20.1 °F 30.13 in WSW 7.7 mph 7.7 mph 36 % 0.00 in
15:35 45.5 °F 20.1 °F 30.13 in WSW 6.6 mph 9.0 mph 36 % 0.00 in
15:40 45.6 °F 19.5 °F 30.13 in WSW 4.9 mph 10.4 mph 35 % 0.00 in
15:45 45.5 °F 19.4 °F 30.13 in West 6.2 mph 9.2 mph 35 % 0.00 in
15:50 45.5 °F 20.1 °F 30.13 in NW 4.3 mph 9.2 mph 36 % 0.00 in
15:55 45.5 °F 19.4 °F 30.13 in West 3.2 mph 6.9 mph 35 % 0.00 in
16:00 45.5 °F 19.4 °F 30.13 in WSW 5.3 mph 8.1 mph 35 % 0.00 in
16:05 45.5 °F 19.4 °F 30.13 in WNW 4.7 mph 13.8 mph 35 % 0.00 in
16:10 45.6 °F 19.5 °F 30.13 in West 5.4 mph 11.0 mph 35 % 0.00 in
16:15 45.6 °F 18.8 °F 30.13 in SW 7.0 mph 11.5 mph 34 % 0.00 in
16:20 45.5 °F 19.4 °F 30.13 in WSW 6.8 mph 10.4 mph 35 % 0.00 in
16:25 45.6 °F 18.8 °F 30.13 in WSW 4.1 mph 8.1 mph 34 % 0.00 in
16:30 45.6 °F 19.5 °F 30.13 in West 5.9 mph 12.7 mph 35 % 0.00 in
16:35 45.6 °F 19.5 °F 30.13 in SW 3.4 mph 4.0 mph 35 % 0.00 in
16:40 45.5 °F 20.7 °F 30.13 in SW 4.4 mph 7.0 mph 37 % 0.00 in
16:45 45.4 °F 20.0 °F 30.13 in WSW 6.3 mph 10.4 mph 36 % 0.00 in
16:50 45.3 °F 20.5 °F 30.13 in West 1.8 mph 3.5 mph 37 % 0.00 in
16:55 45.2 °F 19.1 °F 30.13 in WSW 6.1 mph 8.1 mph 35 % 0.00 in
17:00 45.1 °F 19.0 °F 30.13 in West 5.3 mph 11.5 mph 35 % 0.00 in
17:06 44.9 °F 18.2 °F 30.13 in NW 8.3 mph 11.0 mph 34 % 0.00 in
17:11 44.7 °F 18.0 °F 30.13 in WSW 7.1 mph 10.4 mph 34 % 0.00 in
17:16 44.6 °F 17.9 °F 30.13 in WSW 6.6 mph 8.1 mph 34 % 0.00 in
17:21 44.6 °F 18.6 °F 30.13 in West 5.9 mph 7.0 mph 35 % 0.00 in
17:26 44.5 °F 18.5 °F 30.13 in West 4.3 mph 6.9 mph 35 % 0.00 in
17:31 44.5 °F 17.8 °F 30.13 in WNW 6.2 mph 10.4 mph 34 % 0.00 in
17:36 44.5 °F 18.5 °F 30.13 in WNW 1.6 mph 4.6 mph 35 % 0.00 in
17:41 44.5 °F 18.5 °F 30.14 in WNW 2.0 mph 3.5 mph 35 % 0.00 in
17:46 44.4 °F 19.1 °F 30.13 in WNW 1.2 mph 5.8 mph 36 % 0.00 in
17:51 44.3 °F 18.3 °F 30.13 in WSW 4.9 mph 9.0 mph 35 % 0.00 in
17:56 44.3 °F 19.0 °F 30.13 in WSW 2.7 mph 4.6 mph 36 % 0.00 in
18:01 44.2 °F 18.9 °F 30.13 in WSW 3.9 mph 6.0 mph 36 % 0.00 in
18:06 44.1 °F 18.2 °F 30.13 in WSW 3.3 mph 7.0 mph 35 % 0.00 in
18:11 44.1 °F 18.2 °F 30.13 in WSW 3.8 mph 6.9 mph 35 % 0.00 in
18:16 44.0 °F 18.1 °F 30.13 in WSW 3.4 mph 4.6 mph 35 % 0.00 in
18:21 44.0 °F 18.7 °F 30.13 in WSW 1.3 mph 4.0 mph 36 % 0.00 in
18:26 43.8 °F 18.5 °F 30.13 in West 0.8 mph 2.0 mph 36 % 0.00 in
18:31 43.8 °F 19.2 °F 30.13 in West 0.9 mph 5.0 mph 37 % 0.00 in
18:36 43.6 °F 19.6 °F 30.14 in West 0.8 mph 3.5 mph 38 % 0.00 in
18:41 43.5 °F 19.5 °F 30.14 in West 2.8 mph 3.5 mph 38 % 0.00 in
18:46 43.3 °F 19.4 °F 30.14 in West 0.9 mph 2.3 mph 38 % 0.00 in
18:52 43.2 °F 19.3 °F 30.14 in West 0.4 mph 2.3 mph 38 % 0.00 in
18:57 43.0 °F 19.1 °F 30.14 in Calm   1.2 mph 38 % 0.00 in
19:02 42.8 °F 18.9 °F 30.14 in Calm   1.2 mph 38 % 0.00 in
19:07 42.6 °F 18.7 °F 30.14 in Calm     38 % 0.00 in
19:12 42.3 °F 19.7 °F 30.14 in Calm   1.2 mph 40 % 0.00 in
19:17 42.0 °F 19.4 °F 30.14 in West 0.2 mph 1.2 mph 40 % 0.00 in
19:22 41.6 °F 19.0 °F 30.14 in West 0.9 mph 2.3 mph 40 % 0.00 in
19:27 41.3 °F 19.3 °F 30.14 in West 0.2 mph 1.2 mph 41 % 0.00 in
19:32 40.9 °F 19.0 °F 30.15 in Calm     41 % 0.00 in
19:37 40.5 °F 19.7 °F 30.15 in Calm   1.2 mph 43 % 0.00 in
19:42 40.1 °F 19.9 °F 30.15 in Calm     44 % 0.00 in
19:47 39.8 °F 21.2 °F 30.15 in West 0.1 mph 1.2 mph 47 % 0.00 in
19:52 39.3 °F 20.7 °F 30.15 in SW 1.7 mph 4.0 mph 47 % 0.00 in
19:57 38.9 °F 20.4 °F 30.15 in SW 0.9 mph 2.3 mph 47 % 0.00 in
20:02 38.6 °F 20.1 °F 30.16 in SW 0.1 mph 1.2 mph 47 % 0.00 in
20:07 38.4 °F 20.4 °F 30.16 in Calm     48 % 0.00 in
20:12 38.1 °F 20.1 °F 30.16 in SW 0.1 mph 1.2 mph 48 % 0.00 in
20:17 37.9 °F 19.9 °F 30.16 in Calm     48 % 0.00 in
20:22 37.7 °F 20.2 °F 30.17 in WSW 1.2 mph 3.0 mph 49 % 0.00 in
20:27 37.5 °F 20.5 °F 30.17 in WSW 1.1 mph 4.0 mph 50 % 0.00 in
20:32 37.4 °F 21.4 °F 30.17 in SSW 2.5 mph 4.0 mph 52 % 0.00 in
20:38 37.2 °F 21.2 °F 30.17 in SW 3.8 mph 5.8 mph 52 % 0.00 in
20:43 37.1 °F 21.1 °F 30.17 in SW 2.4 mph 4.6 mph 52 % 0.00 in
20:48 37.1 °F 21.1 °F 30.18 in SW 0.5 mph 3.5 mph 52 % 0.00 in
20:52 37.0 °F 20.5 °F 30.18 in SW 0.4 mph 1.2 mph 51 % 0.00 in
20:58 37.1 °F 21.5 °F 30.17 in WSW 3.0 mph 4.6 mph 53 % 0.00 in
21:03 37.0 °F 20.5 °F 30.18 in WSW 1.0 mph 6.0 mph 51 % 0.00 in
21:08 37.0 °F 20.5 °F 30.18 in WSW 3.0 mph 5.8 mph 51 % 0.00 in
21:13 37.0 °F 20.5 °F 30.18 in SW 1.2 mph 2.3 mph 51 % 0.00 in
21:18 37.0 °F 20.5 °F 30.18 in SW 1.6 mph 3.5 mph 51 % 0.00 in
21:23 37.1 °F 20.6 °F 30.18 in WSW 2.5 mph 5.0 mph 51 % 0.00 in
21:28 37.0 °F 20.5 °F 30.18 in SW 2.9 mph 8.1 mph 51 % 0.00 in
21:33 37.0 °F 20.5 °F 30.18 in SW 1.1 mph 3.5 mph 51 % 0.00 in
21:38 36.9 °F 20.4 °F 30.18 in SW 0.1 mph 1.2 mph 51 % 0.00 in
21:43 36.9 °F 20.4 °F 30.18 in SW 1.0 mph 7.0 mph 51 % 0.00 in
21:44 36.8 °F 20.8 °F 30.18 in SW 0.5 mph 1.2 mph 52 % 0.00 in
21:49 36.7 °F 20.3 °F 30.18 in WSW 2.2 mph 6.0 mph 51 % 0.00 in
21:54 36.6 °F 20.2 °F 30.18 in SW 2.2 mph 3.5 mph 51 % 0.00 in
21:59 36.5 °F 20.1 °F 30.19 in SSW 0.4 mph 2.3 mph 51 % 0.00 in
22:04 36.5 °F 20.1 °F 30.19 in SW 2.2 mph 3.0 mph 51 % 0.00 in
22:09 36.5 °F 19.6 °F 30.18 in WSW 3.0 mph 4.0 mph 50 % 0.00 in
22:15 36.5 °F 19.6 °F 30.19 in SW 2.9 mph 5.8 mph 50 % 0.00 in
22:20 36.5 °F 20.1 °F 30.19 in WSW 1.6 mph 3.5 mph 51 % 0.00 in
22:25 36.5 °F 20.1 °F 30.19 in WSW 0.2 mph 2.3 mph 51 % 0.00 in
22:30 36.5 °F 20.1 °F 30.19 in WSW 1.2 mph 2.3 mph 51 % 0.00 in
22:35 36.5 °F 20.1 °F 30.19 in WSW 3.1 mph 4.6 mph 51 % 0.00 in
22:40 36.4 °F 20.0 °F 30.19 in SW 0.6 mph 3.5 mph 51 % 0.00 in
22:45 36.4 °F 20.0 °F 30.19 in West 0.5 mph 2.0 mph 51 % 0.00 in
22:50 36.3 °F 20.3 °F 30.19 in West 1.2 mph 2.3 mph 52 % 0.00 in
22:55 36.2 °F 20.2 °F 30.19 in SW 1.6 mph 2.3 mph 52 % 0.00 in
23:00 36.1 °F 20.2 °F 30.19 in SW 1.5 mph 2.3 mph 52 % 0.00 in
23:05 36.0 °F 20.5 °F 30.19 in Calm     53 % 0.00 in
23:10 35.9 °F 20.4 °F 30.19 in SW 0.8 mph 2.3 mph 53 % 0.00 in
23:15 35.8 °F 19.9 °F 30.19 in SW 1.6 mph 4.0 mph 52 % 0.00 in
23:20 35.7 °F 20.2 °F 30.19 in SW 1.3 mph 3.5 mph 53 % 0.00 in
23:25 35.6 °F 20.1 °F 30.19 in SW 1.5 mph 3.0 mph 53 % 0.00 in
23:30 35.4 °F 19.9 °F 30.19 in WSW 1.3 mph 3.5 mph 53 % 0.00 in
23:35 35.4 °F 20.4 °F 30.20 in SW 2.3 mph 3.5 mph 54 % 0.00 in
23:40 35.3 °F 20.7 °F 30.20 in SW 1.8 mph 4.6 mph 55 % 0.00 in
23:45 35.2 °F 20.6 °F 30.20 in SW 3.1 mph 5.8 mph 55 % 0.00 in
23:50 35.1 °F 20.5 °F 30.20 in SW 1.0 mph 3.5 mph 55 % 0.00 in
23:56 35.1 °F 20.5 °F 30.20 in WSW 2.5 mph 5.0 mph 55 % 0.00 in
Crab Meadow Weather
Compliments of Weather Underground - 3 mb

Script developed by  Jim McMurry - jmcmurry@mwt.net Adapted for the template by  Wim van der Kuil - Leuven-Template.eu

Astronomy: One day on Jupiter is only 9 hours and 55 minutes.